STARLINK-11394, 62218

Orbit data source: Space-Track

STARLINK-11394, 62218 is a payload satellite owned by SpaceX/Seattle (US) in LEO that was launched on Thu, 05 Dec 2024 UTC via an FALCON 9 launch vehicle from the Air Force Western Test Range (AFWTR). Payload-class satellites include a variety of spacecraft equipped with specific instruments for various scientific and technological missions. These include communications satellites like Starlink; space stations such as the ISS; scientific satellites like the Hubble; Earth observation satellites from companies like Planet Labs, Umbra, and HawkEye 360; GPS; miniature CubeSats for education and research; and military/defense satellites.

Not visible in the next 10 days
Identifier
62218, 2024-231A
Orbit
LEO
Country
Flag of USUS
Related business
Manufacturer
SpaceX/Seattle
Mission
Operational Commercial Communications
Bus & Motor
STARLINK V2MD, Unknown motor
Mass
960 kg wet, ~910 kg dry
Launch date (UTC)
2024-12-05 (11 months ago)
Launch vehicle
FALCON 9
Launch site
Air Force Western Test Range (AFWTR)
Object type
Payload
Rocket body
Debris
Shape & HBR
Box + 2 Pan, 18.1 m
Radar Cross Section
36.964 m², Large (>1 m²)

Expand to show TLE details & history
Last TLE update: 14 hours ago

TLE from 14 hours ago
0 STARLINK-11394
1 62218U 24231A   25304.58291610  .00194923  00000-0  15737-2 0  9990
2 62218  53.1572  17.7348 0003092 154.0753 206.0420 15.69747444 53130
Epoch: 2025-10-31T13:59Z
TLE epoch observation values (Epoch: 2025-10-31T13:59:23.951Z)
Latitude
-0.00002°
Longitude
127.75972°
Altitude
362.406 km
Speed
7.692 km/s
True Right ascension
01h 10m 56s
True Declination
0° 00' 00"
Sunlit
Object was in full shadow at epoch
Visualization orbit readout
Latitude
Unknown
Longitude
Unknown
Altitude
Unknown
Speed
Unknown
Apparent Right ascension
Unknown
Apparent Declination
Unknown
Sunlit
N/A
Visualization observer readout
Local Sidereal Time
23:52:31
Azimuth
Unknown
Elevation
Unknown
Doppler factor
Unknown
Orbital elements
Apogee altitude
361.964 km
Perigee altitude
357.797 km
Semi-major axis
6,738.018 km
Eccentricity
0.00031
Inclination
53.1572°
RAAN
17.7348°
Arg. of periapsis
154.0753°
True anomaly
206.02645°
Mean anomaly
206.042°
Eccentric anomaly
206.03422°
Mean motion
3.92414 °/min
Orbital period
91.74 mins
BSTAR
0.0015737
Loading maneuver chart data...
Computing Atmospheric mass density...
Loading historical data...
Loading historical data...
Loading historical data...
Loading historical data...
Loading historical data...
Loading historical data...
Loading historical data...

Documentation

Showing up to 5 results
|